Tracking 29747 objects as of 9-Oct-2024
HD Live streaming from Space Station
objects crossing your sky now

LEMUR 2 AMANDA-SVANTE

Track LEMUR 2 AMANDA-SVANTE now!
10-day predictions
LEMUR 2 AMANDA-SVANTE is classified as:


NORAD ID: 48269
Int'l Code: 2021-034B
Perigee: 559.8 km
Apogee: 565.6 km
Inclination: 97.6 °
Period: 95.8 minutes
Semi major axis: 6933 km
RCS: Unknown
Launch date: April 29, 2021
Source: United States (US)
Launch site: FRENCH GUIANA (FRGUI)
Your satellite tracking list
Your tracking list is empty




NASA's NSSDC Master Catalog

Two Line Element Set (TLE):
1 48269U 21034B   24283.14485626  .00042610  00000-0  30975-2 0  9993
2 48269  97.6465 346.8879 0004144 215.0278 145.0675 15.03681488187593
Source of the keplerian elements: AFSPC